Погода в Высшей Дубечне

Украина / Киевская область     50°44′06″N   30°38′43″E
темп.,
°C
ветер,
м/с
пор.,
м/с
влажн.,
%
обл.,
%
осадки,
мм/ч
давл.,
гПа
погр.,
м
27 сентября, пн
пн2700:00+12ссз356390 0.0 1021104
03:00+8ссв48831 0.0 1022173
06:00+6с379611 0.0 1023178
09:00+8ссв468322 0.0 1023380
12:00+12ссв456411 0.0 1024886
15:00+13ссв445720 0.0 10231113
18:00+13ссв4757100 0.0 1023499
21:00+10св377524 0.0 1024195
28 сентября, вт
вт2800:00+8св358533 0.0 102495
03:00+6св33925 0.0 102559
06:00+5св34955 0.0 102567
09:00+8св35815 0.0 1026241
12:00+13св445924 0.0 10261109
15:00+15ссв444975 0.1 10261579
18:00+12св5867100 0.1 1027438
21:00+10всв4875100 0.1 1028408
29 сентября, ср
ср2900:00+8всв498788 0.0 1030321
03:00+5всв499618 0.0 1031210
06:00+5в479536 0.0 1032149
09:00+8в487699 0.0 1033492
12:00+9в566698 0.0 1033817
15:00+12вюв345098 0.0 10321472
18:00+10в345812 0.0 103290
21:00+7в33665 0.0 103332
30 сентября, чт
чт3000:00+5вюв35695 0.0 103466
03:00+4вюв34725 0.0 103447
06:00+3вюв33765 0.0 103447
09:00+7вюв35615 0.0 1034203
12:00+13юв45425 0.0 1034979
15:00+15юв44355 0.0 10331336
18:00+12юв34475 0.0 103251
21:00+8вюв45565 0.0 103360
1 октября, пт
пт100:00+6юв46630 0.0 103489
03:00+5юв35660 0.0 103464
06:00+4юв35680 0.0 103462
09:00+8юв46571 0.0 1034199
12:00+14ююв45425 0.0 1034962
15:00+16ююв45369 0.0 10331389
18:00+12юв454887 0.0 103281
21:00+9юв4754100 0.0 1032101